ZHONGXING-2E

Last updated on Fri Dec 19 2025 00:02:53 GMT+0000 (Coordinated Universal Time)

1 49062U 21071A 25352.67333828 -.00000267 00000+0 00000+0 0 9993 2 49062 0.0354 98.3821 0001163 175.8848 153.7343 1.00272546 16222
UTC large
Height (km)
Speed (km/s)
/
Latitude / Longitude
Inclination (degrees)
Orbital Period (minutes)
Azimuth
Elevation
Range (km)
Doppler Factor

Next 0 passes for location: London (51.5072 / 0.1276)

Sorry there are no passes over London.